Location: Unspecified
(28.0250°N, 120.8490°E)
Time: 22:23:02
(UTC+00:00)

Daily predictions for brighter satellites

Satellite Brightness Start Highest point End
(mag) Time Altitude Azimuth Time Altitude Azimuth Time Altitude Azimuth
CZ-4B R/B 3.5 12:06:43 58° WSW 12:07:08 60° WSW 12:12:26 10° NNW
Cosmos 1980 Rocket 3.5 12:07:46 10° NNW 12:10:30 30° NNW 12:10:30 30° NNW
Nadezhda 4 Rocket 4.4 12:16:29 10° NNW 12:21:41 56° NW 12:21:41 56° NW
ATLAS 5 CENTAUR R/B 3.4 12:22:07 10° NW 12:27:40 42° WSW 12:28:35 40° SW
Cosmos 2344 4.4 19:35:53 38° NNE 19:35:53 38° NNE 19:39:57 10° NNE
Milstar 3 Cent rocket 4.5 19:39:36 16° SE 19:39:36 16° SE 19:41:13 10° ESE
Cosmos 2278 Rocket 3.8 19:54:49 26° NNE 19:54:49 26° NNE 19:57:14 10° NNE
Cosmos 1943 Rocket 3.6 19:52:26 32° ESE 19:53:00 33° ESE 19:57:51 10° NE
Cosmos 1833 Rocket 4.3 19:51:36 26° NNE 19:53:22 31° ENE 19:58:15 10° SE
Tiangong 1.1 20:22:13 14° ESE 20:22:13 14° ESE 20:22:47 10° ESE
H-2A R/B 2.2 20:16:15 10° NNE 20:21:25 69° ESE 20:21:38 68° ESE
Cosmos 1190 Rocket 4.5 20:28:25 48° S 20:28:25 48° S 20:32:07 10° SSE
Cosmos 1331 Rocket 4.1 20:33:01 34° S 20:35:15 73° ESE 20:40:23 10° NNE
Cosmos 1892 Rocket 4.4 20:36:27 10° N 20:40:48 51° E 20:45:08 10° SSE
IRS-P3 Rocket 4.5 20:39:38 10° N 20:45:02 76° WNW 20:50:22 10° SSW
Cosmos 1110 Rocket 3.8 20:46:53 42° SSW 20:48:39 72° WNW 20:53:52 10° N
CCE 1 Rocket 4.2 20:47:39 44° SSW 20:48:45 56° SSE 20:55:15 10° E
USA 238 DEB 3.5 20:44:22 16° SSW 20:49:20 81° ESE 20:55:47 10° NNE
USA 238 3.5 20:44:23 15° SSW 20:49:33 80° ESE 20:55:59 10° NNE
CENTAUR R/B 4.2 20:55:02 14° NNW 20:55:02 14° NNW 20:57:03 10° N
USA 234 4.0 20:50:43 10° NNE 20:56:17 31° NW 20:57:16 30° NW
Haruka 2.7 20:55:50 55° WSW 20:56:34 72° SSW 21:04:03 10° ESE
Cosmos 1544 Rocket 4.1 20:55:09 10° S 20:59:25 58° E 21:03:45 10° NNE
COSMO-SKYMED 1 3.8 20:56:57 10° SE 21:01:02 42° ENE 21:05:08 10° N
ARIANE 5 R/B 2.3 20:59:05 10° N 21:04:03 67° WNW 21:09:01 10° SSW
SL-19 R/B 4.5 20:59:29 10° NNE 21:05:49 87° W 21:12:05 10° SSW
Cosmos 1954 Rocket 4.3 21:09:17 26° NW 21:11:39 41° WSW 21:16:33 10° S
Cosmos 1606 4.1 21:15:32 10° SSE 21:18:49 37° E 21:22:08 10° NNE
ARGOS 3.1 21:13:45 10° N 21:19:10 75° WNW 21:24:34 10° SSW
Cosmos 1452 Rocket 4.2 21:18:12 26° W 21:19:41 31° WNW 21:24:19 10° N
ATLAS CENTAUR R/B 0.9 21:17:45 19° SW 21:20:14 67° WNW 21:23:48 10° NNE
Cosmos 2100 Rocket 4.1 21:18:41 10° NNW 21:24:40 51° W 21:30:43 10° SSW
SEDSat Delta rocket 3.2 21:22:22 22° WSW 21:25:47 87° SSE 21:30:27 10° ENE
Cosmos 405 Rocket 2.3 21:22:27 10° SSW 21:25:57 72° W 21:29:29 10° N
FengYun 1-2 T 4.3 21:21:23 10° N 21:26:53 59° WNW 21:32:25 10° SSW
Meteor 2-15 4.4 21:21:55 10° N 21:28:02 89° ENE 21:34:11 10° S
Cosmos 1741 Rocket 4.3 21:24:50 10° N 21:30:02 71° ENE 21:35:12 10° SSE
Cosmos 1459 Rocket 4.1 21:24:23 10° NNW 21:30:26 51° W 21:36:22 10° SSW
Cosmos 2228 3.0 21:27:03 10° S 21:31:17 87° E 21:35:34 10° N
Cosmos 2058 2.8 21:27:38 10° N 21:31:46 90° SSW 21:35:53 10° S
SJ 16-02 4.2 21:31:40 10° NNE 21:34:39 18° ENE 21:37:35 10° ESE
Cosmos 1802 Rocket 3.9 21:29:01 10° NNW 21:35:06 62° W 21:41:08 10° S
Cosmos 2278 Rocket 4.0 21:36:43 12° NW 21:36:43 12° NW 21:38:07 10° NW
Cosmos 1943 Rocket 3.2 21:34:03 17° W 21:36:40 23° WNW 21:40:58 10° NNW
Cosmos 1833 Rocket 3.6 21:33:24 14° NW 21:37:02 25° WSW 21:41:31 10° SSW
Yuri Rocket 2.8 21:34:13 20° W 21:37:04 86° N 21:41:19 10° E
Cosmos 2082 Rocket 2.4 21:32:44 10° NNW 21:38:27 77° ENE 21:44:09 10° SSE
SJ-11-01 4.2 21:35:07 10° N 21:39:46 84° WNW 21:44:24 10° SSW
Spot 4 Rocket 3.9 21:36:52 10° N 21:41:59 79° WNW 21:47:05 10° SSW
NOSS 3-2 (C) 4.5 21:40:29 15° WNW 21:42:21 18° NW 21:46:08 10° N
COSMOS 2406 3.5 21:36:55 10° NNW 21:42:41 73° ENE 21:48:25 10° SSE
Cosmos 2297 3.6 21:37:57 10° SSW 21:43:34 82° WNW 21:49:12 10° NNE
SKYMED 2 3.9 21:44:54 10° S 21:49:02 44° W 21:53:10 10° NNW
Cosmos 2369 Rocket 2.3 21:48:19 10° SSW 21:54:01 85° ESE 21:59:44 10° NNE
Tiangong -0.1 21:54:24 11° W 21:56:18 16° SW 21:58:21 10° S
Cosmos 1869 3.8 21:54:53 10° SSW 21:58:30 35° W 22:02:07 10° NNW
USA 290 2.1 21:55:29 10° SSW 21:58:33 59° WNW 22:01:37 10° N
Cosmos 2233 Rocket 4.0 22:03:36 10° NNW 22:09:42 61° W 22:15:45 10° S
